Location: Unspecified
(49.8670°N, 0.0000°E)
Time: 01:34:33
(UTC+00:00)

ISS - Pass Details

Date: 31 May 2019
Orbit: 407 x 418 km, 51.6° (Epoch: 25 June)

Event Time Altitude Azimuth Distance (km) Brightness Sun altitude
Rises 21:13:35 0° 288° (WNW) 2,358 1.1 -9.5°
Reaches altitude 10° 21:15:44 10° 281° (W) 1,495 -0.2 -9.7°
Maximum altitude 21:18:56 42° 209° (SSW) 607 -3.1 -10.0°
Enters shadow 21:21:19 16° 142° (SE) 1,188 -2.1 -10.2°
